Port Angeles, WA
on Monday, November 26, 2012

Monday
Previous Day Next Day
Daily Summary
 ActualAverageRecord
Temperature
Mean Temperature °F °F  
Max Temperature 44°F 47°F 67°F (1950)
Min Temperature 32°F 35°F 19°F (1985)
Degree Days
Heating Degree Days 27    
Moisture
Dew Point 35°F   
Average Humidity 81    
Maximum Humidity 92    
Minimum Humidity 71    
Precipitation
Precipitation 0.00 in in in ()
Wind
Wind Speed 6 mph   
Max Wind Speed 10 mph   
Max Gust Speed 16 mph   
Visibility 10 miles   
Events     
Averages and records for this station are not official NWS values.
Key: T is trace of precipitation, MM is missing value
Source: NWS Daily Summary
Seasonal Weather Averages
Time(PST)TemperatureDew PointHumidity Pressure Visibility Wind DirectionWind SpeedGust SpeedPrecipitationEvents Conditions
12:53 AM 42.1°F 37.0°F 82% 30.27 in 10.0 miles Variable 5.8 mph - N/A   Overcast
1:19 AM 42.1°F 37.0°F 82% 30.24 in 10.0 miles ENE 6.9 mph 16.1 mph N/A   Overcast
1:53 AM 42.1°F 37.0°F 82% 30.22 in 10.0 miles East 8.1 mph 16.1 mph N/A   Overcast
2:02 AM 43.0°F 37.0°F 80% 30.22 in 10.0 miles ESE 9.2 mph - N/A   Overcast
2:53 AM 42.1°F 37.9°F 85% 30.22 in 10.0 miles ENE 8.1 mph - N/A   Overcast
3:15 AM 42.1°F 37.9°F 85% 30.22 in 10.0 miles ENE 6.9 mph - N/A   Overcast
3:37 AM 43.0°F 37.0°F 80% 30.21 in 10.0 miles East 10.4 mph - N/A   Overcast
3:53 AM 43.0°F 37.0°F 80% 30.22 in 10.0 miles East 6.9 mph - N/A   Overcast
4:53 AM 42.1°F 36.0°F 79% 30.20 in 10.0 miles East 4.6 mph - N/A   Overcast
5:00 AM 42.1°F 36.0°F 79% 30.19 in 10.0 miles SE 8.1 mph - N/A   Overcast
5:07 AM 42.1°F 36.0°F 79% 30.19 in 10.0 miles ESE 4.6 mph - N/A   Overcast
5:16 AM 42.1°F 36.0°F 79% 30.19 in 10.0 miles East 3.5 mph - N/A   Overcast
5:53 AM 42.1°F 36.0°F 79% 30.19 in 10.0 miles East 5.8 mph - N/A   Overcast
6:08 AM 42.1°F 36.0°F 79% 30.18 in 10.0 miles SE 5.8 mph - N/A   Overcast
6:53 AM 41.0°F 35.1°F 79% 30.18 in 10.0 miles ESE 6.9 mph - N/A   Overcast
7:20 AM 39.9°F 35.1°F 83% 30.16 in 10.0 miles SE 4.6 mph - N/A   Overcast
7:53 AM 39.0°F 34.0°F 82% 30.16 in 10.0 miles SE 4.6 mph - N/A   Mostly Cloudy
8:53 AM 42.1°F 35.1°F 76% 30.16 in 10.0 miles Calm Calm - N/A   Overcast
9:53 AM 42.1°F 35.1°F 76% 30.15 in 10.0 miles SE 4.6 mph - N/A   Mostly Cloudy
10:53 AM 43.0°F 35.1°F 74% 30.14 in 10.0 miles Calm Calm - N/A   Mostly Cloudy
11:53 AM 44.1°F 35.1°F 71% 30.12 in 10.0 miles East 9.2 mph - N/A   Mostly Cloudy
12:53 PM 44.1°F 35.1°F 71% 30.12 in 10.0 miles East 6.9 mph - N/A   Overcast
1:53 PM 44.1°F 35.1°F 71% 30.10 in 10.0 miles Variable 3.5 mph - N/A   Overcast
2:28 PM 43.0°F 34.0°F 71% 30.08 in 10.0 miles East 5.8 mph - N/A   Scattered Clouds
2:53 PM 42.1°F 34.0°F 73% 30.09 in 10.0 miles East 5.8 mph - N/A   Clear
3:53 PM 41.0°F 34.0°F 76% 30.09 in 10.0 miles East 5.8 mph - N/A   Clear
4:53 PM 37.9°F 34.0°F 86% 30.09 in 10.0 miles SE 3.5 mph - N/A   Clear
5:53 PM 35.1°F 33.1°F 92% 30.08 in 10.0 miles Calm Calm - N/A   Clear
6:53 PM 33.1°F 30.9°F 92% 30.08 in 10.0 miles Calm Calm - N/A   Clear
7:53 PM 32.0°F 30.0°F 92% 30.07 in 10.0 miles South 3.5 mph - N/A   Clear
8:53 PM 33.1°F 30.9°F 92% 30.08 in 10.0 miles SSW 3.5 mph - N/A   Clear
9:53 PM 35.1°F 32.0°F 89% 30.09 in 10.0 miles SW 5.8 mph - N/A   Overcast
10:53 PM 36.0°F 33.1°F 89% 30.10 in 10.0 miles SW 5.8 mph - N/A   Overcast
11:53 PM 36.0°F 33.1°F 89% 30.09 in 10.0 miles WSW 8.1 mph - N/A   Overcast
Moon Phase
Nov. 26 Nov. 28 Dec. 06 Dec. 13 Dec. 20
Sunrise:07:37 AM (PST) Moon Rise:03:24 PM (PST)11/26
Sunset:04:25 PM (PST) Moon Set:05:48 AM (PST)11/26

Copyright © 2014 The Weather Underground, Inc.